Starlink 31532

operational
NORAD ID: 59349 Int'l Des: 2024-060 Owner: SPXS Country: US Constellation: starlink
LEOCIRCULAR

关于 Starlink 31532

正在加载描述...

实时位置

正在加载3D地球...

即将过境

高度历史

Altitude vs Time

uPlot chart will show altitude changes over time

两行轨道根数

1 59349U 24060B 25352.09289323 -.00000191 00000-0 25828-5 0 9997
2 59349 43.0006 0.6733 0000850 214.6709 145.4087 15.27577341 97632
Epoch: Dec 18, 2025 • Age: 15 hours

当前状态

高度 483.0 km
速度 7.63 km/s
星下点 -4.13°S, 163.44°W
发射日期 Mar 31, 2024
运行时间 1.7 years
类型 internet

技术详情

分类 Payload
质量 730.00 kg
干质量 700.00 kg
总质量 730.00 kg
长度 0.30 m
直径 4.10 m
跨度 29.00 m
形状 Box + pan
制造商 SPXS
平台类型 Starlink V2M
阶段状态 In Orbit
所有者/国家 SPXS/US

大型星座

Loading constellations...